STARLINK-31324, 58976

Orbit data source: Space-Track

STARLINK-31324, 58976 is a payload satellite owned by SpaceX/Seattle (US) in LEO that was launched on Thu, 15 Feb 2024 UTC via an FALCON 9 launch vehicle from the Air Force Western Test Range (AFWTR). Payload-class satellites include a variety of spacecraft equipped with specific instruments for various scientific and technological missions. These include communications satellites like Starlink; space stations such as the ISS; scientific satellites like the Hubble; Earth observation satellites from companies like Planet Labs, Umbra, and HawkEye 360; GPS; miniature CubeSats for education and research; and military/defense satellites.

Loading next visibility...
Identifier
58976, 2024-031M
Orbit
LEO
Country
Flag of USUS
Related business
Manufacturer
SpaceX/Seattle
Mission
Operational Commercial Communications
Bus & Motor
STARLINK V2M, Unknown motor
Mass
730 kg wet, ~700 kg dry
Launch date (UTC)
2024-02-15 (2 years ago)
Launch vehicle
FALCON 9
Launch site
Air Force Western Test Range (AFWTR)
Object type
Payload
Rocket body
Debris
Shape & HBR
Box + 2 Pan, 17.7 m
Radar Cross Section
33.884 m², Large (>1 m²)

Expand to show TLE details & history
Last TLE update: 2 days ago

TLE from 2 days ago
0 STARLINK-31324
1 58976U 24031M   26171.04704891  .00000717  00000-0  36331-4 0  9990
2 58976  53.1608 181.3171 0001266  85.3342 274.7803 15.30197769132186
Epoch: 2026-06-20T01:07Z
TLE epoch observation values (Epoch: 2026-06-20T01:07:45.025Z)
Latitude
-0.00007°
Longitude
-103.88784°
Altitude
476.049 km
Speed
7.629 km/s
True Right ascension
12h 05m 16s
True Declination
0° 00' 00"
Sunlit
Object was in daylight at epoch
Visualization orbit readout
Latitude
Unknown
Longitude
Unknown
Altitude
Unknown
Speed
Unknown
Apparent Right ascension
Unknown
Apparent Declination
Unknown
Sunlit
N/A
Visualization observer readout
Local Sidereal Time
21:29:50
Azimuth
Unknown
Elevation
Unknown
Doppler factor
Unknown
Orbital elements
Apogee altitude
476.346 km
Perigee altitude
474.61 km
Semi-major axis
6,853.615 km
Eccentricity
0.00013
Inclination
53.1608°
RAAN
181.3171°
Arg. of periapsis
85.3342°
True anomaly
274.76584°
Mean anomaly
274.7803°
Eccentric anomaly
274.77307°
Mean motion
3.82528 °/min
Orbital period
94.11 mins
BSTAR
0.000036331
Loading maneuver chart data...
Computing Atmospheric mass density...
Loading historical data...
Loading historical data...
Loading historical data...
Loading historical data...
Loading historical data...
Loading historical data...
Loading historical data...

Documentation

Showing up to 5 results
|